This is the latest recevied weather packets stored in our database for station/object HG5CJW-10. If no packets are shown the sender has not sent any weather packets the latest 10 day(s).
| Time | Temp. | Humidity | Pressure | Rain* | Wind** | Luminosity | Snow |
|---|---|---|---|---|---|---|---|
| 1788337116 | 20.56° C | 46% | 1040.4 hPa | - | - | - | - |
| 1788324509 | 18.89° C | 50% | 1040.2 hPa | - | - | - | - |
| 1788322704 | 19.44° C | 50% | 1040 hPa | - | - | - | - |
| 1788321804 | 19.44° C | 50% | 1040 hPa | - | - | - | - |
| 1788320904 | 19.44° C | 50% | 1040 hPa | - | - | - | - |
| 1788320004 | 19.44° C | 50% | 1040 hPa | - | - | - | - |
| 1788319104 | 20° C | 49% | 1040.1 hPa | - | - | - | - |
| 1788317303 | 20° C | 49% | 1040.1 hPa | - | - | - | - |
| 1788316403 | 20° C | 49% | 1040.2 hPa | - | - | - | - |
| 1788315503 | 20° C | 49% | 1039.9 hPa | - | - | - | - |
| 1788314603 | 20.56° C | 49% | 1039.9 hPa | - | - | - | - |
| 1788313703 | 20.56° C | 49% | 1039.9 hPa | - | - | - | - |
| 1788312803 | 20.56° C | 48% | 1039.8 hPa | - | - | - | - |
| 1788311903 | 21.11° C | 48% | 1039.7 hPa | - | - | - | - |
| 1788311003 | 21.11° C | 48% | 1039.6 hPa | - | - | - | - |
| 1788310103 | 21.11° C | 48% | 1039.2 hPa | - | - | - | - |
| 1788309198 | 21.11° C | 48% | 1039.6 hPa | - | - | - | - |
| 1788308297 | 21.67° C | 48% | 1039.5 hPa | - | - | - | - |
| 1788307397 | 21.67° C | 47% | 1039.6 hPa | - | - | - | - |
| 1788306497 | 21.67° C | 47% | 1039.6 hPa | - | - | - | - |
| 1788305597 | 22.22° C | 47% | 1039.6 hPa | - | - | - | - |
| 1788304697 | 22.22° C | 47% | 1039.2 hPa | - | - | - | - |
| 1788303797 | 22.22° C | 47% | 1039.3 hPa | - | - | - | - |
| 1788302897 | 22.78° C | 47% | 1039.2 hPa | - | - | - | - |
| 1788301997 | 22.78° C | 46% | 1039.2 hPa | - | - | - | - |
* Rain since midnight (hover to see other rain measurements)
** Current wind speed in m/s (hover to see current wind gust speed)